sat.trackr.live / text

‹ back to catalog

STARLINK-3447

NORAD 51736 · 2022-016Y

PAYLOAD ACTIVE UNKNOWN

§ Identity

Operator
Country
US
Launch date
2022-02-21
Launch site
AFETR
Launch vehicle
Mass (kg)
RCS (m²)

Purposes: comms

External: N2YO · Heavens-Above · Gunter

§ Orbital elements

Epoch: 2026-05-24T23:04:46.984224Z

Period
95.44 min
Inclination
53.2131°
Eccentricity
0.0001334
Mean motion
15.08845289 rev/d
Perigee alt
538.8 km
Apogee alt
540.7 km
Semi-major
6,917.9 km
B*
-9.8506e-5
RAAN
336.8098°
Arg perigee
85.7507°
Mean anomaly
274.3638°
Rev number
23,507

§ Raw data

STARLINK-34471 51736U 22016Y   26144.96165491 -.00001856  00000+0 -98506-4 0  99942 51736  53.2131 336.8098 0001334  85.7507 274.3638 15.08845289235079

JSON: /api/v1/satellites/51736 · /tle

For live sub-satellite position, see the globe view (requires WebGL).

§ Visibility from observer

Set your observer location to see the next 7 days of passes ≥ 10°. The values pass through the URL so the page stays shareable.

No JS? Fill the form by hand. The geolocation button needs JavaScript.